Powrót do katalogu

CHINASAT 2C

AktywnyŁącznośćGEO
NORAD 41021·PAYLOAD·🇨🇳 China

Wystrzelony Nov 3, 2015 z Xichang Satellite Launch Center

Loading…

TLE

ŚwieżeSource: Space-Track

Epoka: Sep 14, 2026, 14:17 UTC

1 41021U 15063A   26257.59564110 -.00000332  00000-0  00000-0 0  9995
2 41021   0.4989  86.8008 0009663 115.4557 109.2024  1.00271915 39873

Śledź CHINASAT 2C w czasie rzeczywistym z AllMySat

Download on the App Store